Time,TemperatureF,DewpointF,PressureIn,WindDirection,WindDirectionDegrees,WindSpeedMPH,WindSpeedGustMPH,Humidity,HourlyPrecipIn,Conditions,Clouds,dailyrainin,SoftwareType,DateUTC
2013-02-24 00:07:00,41.5,33.0,29.95,North,349,0.0,1.0,73,0.00,,,0.00,weatherlink.com 1.10,2013-02-24 05:07:00,
2013-02-24 00:22:00,41.2,33.0,29.93,SSE,168,4.0,4.0,72,0.00,,,0.00,weatherlink.com 1.10,2013-02-24 05:22:00,
2013-02-24 00:37:00,40.4,33.0,29.93,North,349,1.0,1.0,75,0.00,,,0.00,weatherlink.com 1.10,2013-02-24 05:37:00,
2013-02-24 00:54:00,39.1,32.0,29.94,NNW,335,0.0,3.0,77,0.00,,,0.00,weatherlink.com 1.10,2013-02-24 05:54:00,
2013-02-24 01:07:00,38.7,32.0,29.96,East,93,0.0,2.0,78,0.00,,,0.00,weatherlink.com 1.10,2013-02-24 06:07:00,
2013-02-24 01:22:00,39.2,32.0,29.97,NNE,26,3.0,6.0,75,0.00,,,0.00,weatherlink.com 1.10,2013-02-24 06:22:00,
2013-02-24 01:37:00,38.6,32.0,29.96,West,279,1.0,5.0,77,0.00,,,0.00,weatherlink.com 1.10,2013-02-24 06:37:00,
2013-02-24 01:52:00,37.7,30.0,29.97,South,183,0.0,3.0,74,0.00,,,0.00,weatherlink.com 1.10,2013-02-24 06:52:00,
2013-02-24 02:07:00,37.5,30.0,29.97,NE,44,0.0,1.0,73,0.00,,,0.00,weatherlink.com 1.10,2013-02-24 07:07:00,
2013-02-24 02:22:00,36.5,29.0,29.97,West,278,0.0,1.0,73,0.00,,,0.00,weatherlink.com 1.10,2013-02-24 07:22:00,
2013-02-24 02:37:00,35.9,28.0,29.97,SSW,207,0.0,1.0,74,0.00,,,0.00,weatherlink.com 1.10,2013-02-24 07:37:00,
2013-02-24 02:52:00,35.1,28.0,29.97,SSE,148,0.0,1.0,75,0.00,,,0.00,weatherlink.com 1.10,2013-02-24 07:52:00,
2013-02-24 03:07:00,34.4,28.0,29.96,SSE,148,0.0,0.0,76,0.00,,,0.00,weatherlink.com 1.10,2013-02-24 08:07:00,
2013-02-24 03:22:00,34.2,28.0,29.97,SSE,148,0.0,1.0,77,0.00,,,0.00,weatherlink.com 1.10,2013-02-24 08:22:00,
2013-02-24 03:37:00,34.0,28.0,29.96,SW,215,0.0,1.0,78,0.00,,,0.00,weatherlink.com 1.10,2013-02-24 08:37:00,
2013-02-24 03:52:00,33.9,28.0,29.96,SSE,148,0.0,1.0,78,0.00,,,0.00,weatherlink.com 1.10,2013-02-24 08:52:00,
2013-02-24 04:08:00,33.7,28.0,29.97,SSE,165,0.0,2.0,78,0.00,,,0.00,weatherlink.com 1.10,2013-02-24 09:08:00,
2013-02-24 04:23:00,33.4,28.0,29.97,SE,142,0.0,2.0,79,0.00,,,0.00,weatherlink.com 1.10,2013-02-24 09:23:00,
2013-02-24 04:38:00,32.8,27.0,29.96,NNW,327,0.0,1.0,80,0.00,,,0.00,weatherlink.com 1.10,2013-02-24 09:38:00,
2013-02-24 04:53:00,31.3,27.0,29.99,SSW,203,1.0,2.0,83,0.00,,,0.00,weatherlink.com 1.10,2013-02-24 09:53:00,
2013-02-24 05:08:00,31.4,27.0,30.00,NNW,333,0.0,2.0,83,0.00,,,0.00,weatherlink.com 1.10,2013-02-24 10:08:00,
2013-02-24 05:23:00,30.9,27.0,30.01,NNE,25,0.0,1.0,85,0.00,,,0.00,weatherlink.com 1.10,2013-02-24 10:23:00,
2013-02-24 05:38:00,31.7,27.0,30.02,WSW,242,0.0,2.0,82,0.00,,,0.00,weatherlink.com 1.10,2013-02-24 10:38:00,
2013-02-24 05:53:00,31.8,26.0,30.02,SSW,197,0.0,1.0,80,0.00,,,0.00,weatherlink.com 1.10,2013-02-24 10:53:00,
2013-02-24 06:08:00,31.7,26.0,30.03,SSW,197,0.0,1.0,80,0.00,,,0.00,weatherlink.com 1.10,2013-02-24 11:08:00,
2013-02-24 06:23:00,31.1,26.0,30.02,SSW,197,0.0,1.0,81,0.00,,,0.00,weatherlink.com 1.10,2013-02-24 11:23:00,
2013-02-24 06:38:00,30.4,26.0,30.03,SSW,197,0.0,1.0,83,0.00,,,0.00,weatherlink.com 1.10,2013-02-24 11:38:00,
2013-02-24 06:53:00,28.9,25.0,30.03,South,184,0.0,1.0,86,0.00,,,0.00,weatherlink.com 1.10,2013-02-24 11:53:00,
2013-02-24 07:08:00,28.2,25.0,30.05,South,184,0.0,1.0,88,0.00,,,0.00,weatherlink.com 1.10,2013-02-24 12:08:00,
2013-02-24 07:23:00,28.0,25.0,30.05,South,184,0.0,0.0,89,0.00,,,0.00,weatherlink.com 1.10,2013-02-24 12:23:00,
2013-02-24 07:38:00,28.9,26.0,30.07,ENE,67,0.0,1.0,87,0.00,,,0.00,weatherlink.com 1.10,2013-02-24 12:38:00,
2013-02-24 07:53:00,30.2,27.0,30.06,SSW,197,0.0,2.0,86,0.00,,,0.00,weatherlink.com 1.10,2013-02-24 12:53:00,
2013-02-24 08:08:00,30.9,27.0,30.07,West,279,0.0,2.0,84,0.00,,,0.00,weatherlink.com 1.10,2013-02-24 13:08:00,
2013-02-24 08:38:00,33.8,27.0,30.08,NW,319,2.0,7.0,76,0.00,,,0.00,weatherlink.com 1.10,2013-02-24 13:38:00,
2013-02-24 08:53:00,34.8,27.0,30.08,NW,319,0.0,3.0,73,0.00,,,0.00,weatherlink.com 1.10,2013-02-24 13:53:00,
2013-02-24 09:08:00,35.9,27.0,30.09,WNW,297,1.0,4.0,70,0.00,,,0.00,weatherlink.com 1.10,2013-02-24 14:08:00,
2013-02-24 09:23:00,36.6,27.0,30.09,West,266,0.0,5.0,69,0.00,,,0.00,weatherlink.com 1.10,2013-02-24 14:23:00,
2013-02-24 09:39:00,36.7,27.0,30.10,NNW,330,2.0,7.0,69,0.00,,,0.00,weatherlink.com 1.10,2013-02-24 14:39:00,
2013-02-24 09:54:00,37.7,29.0,30.10,NW,311,5.0,7.0,70,0.00,,,0.00,weatherlink.com 1.10,2013-02-24 14:54:00,
2013-02-24 10:09:00,38.1,27.0,30.10,West,274,1.0,8.0,64,0.00,,,0.00,weatherlink.com 1.10,2013-02-24 15:09:00,
2013-02-24 10:24:00,38.2,27.0,30.11,NNW,327,0.0,4.0,64,0.00,,,0.00,weatherlink.com 1.10,2013-02-24 15:24:00,
2013-02-24 10:39:00,39.6,27.0,30.11,North,356,1.0,6.0,62,0.00,,,0.00,weatherlink.com 1.10,2013-02-24 15:39:00,
2013-02-24 10:54:00,39.6,24.0,30.11,ENE,62,2.0,7.0,55,0.00,,,0.00,weatherlink.com 1.10,2013-02-24 15:54:00,
2013-02-24 11:09:00,40.3,25.0,30.11,West,277,2.0,11.0,54,0.00,,,0.00,weatherlink.com 1.10,2013-02-24 16:09:00,
2013-02-24 11:24:00,41.3,23.0,30.11,NE,45,2.0,13.0,49,0.00,,,0.00,weatherlink.com 1.10,2013-02-24 16:24:00,
2013-02-24 11:39:00,41.5,24.0,30.11,South,191,5.0,8.0,50,0.00,,,0.00,weatherlink.com 1.10,2013-02-24 16:39:00,
2013-02-24 11:54:00,42.4,25.0,30.11,NE,54,9.0,12.0,50,0.00,,,0.00,weatherlink.com 1.10,2013-02-24 16:54:00,
2013-02-24 12:09:00,42.9,24.0,30.10,SW,224,2.0,9.0,48,0.00,,,0.00,weatherlink.com 1.10,2013-02-24 17:09:00,
2013-02-24 12:24:00,43.3,24.0,30.10,NNW,347,2.0,11.0,46,0.00,,,0.00,weatherlink.com 1.10,2013-02-24 17:24:00,
2013-02-24 12:39:00,43.9,24.0,30.10,SE,127,4.0,11.0,45,0.00,,,0.00,weatherlink.com 1.10,2013-02-24 17:39:00,
2013-02-24 12:54:00,44.5,25.0,30.10,NNW,332,1.0,7.0,46,0.00,,,0.00,weatherlink.com 1.10,2013-02-24 17:54:00,
2013-02-24 13:09:00,45.7,25.0,30.09,WSW,256,3.0,5.0,45,0.00,,,0.00,weatherlink.com 1.10,2013-02-24 18:09:00,
2013-02-24 13:24:00,45.4,24.0,30.09,West,278,7.0,10.0,44,0.00,,,0.00,weatherlink.com 1.10,2013-02-24 18:24:00,
2013-02-24 13:39:00,45.4,24.0,30.09,NNW,336,3.0,7.0,43,0.00,,,0.00,weatherlink.com 1.10,2013-02-24 18:39:00,
2013-02-24 13:54:00,45.3,23.0,30.09,North,5,7.0,10.0,42,0.00,,,0.00,weatherlink.com 1.10,2013-02-24 18:54:00,
2013-02-24 14:09:00,45.3,25.0,30.09,North,358,4.0,7.0,45,0.00,,,0.00,weatherlink.com 1.10,2013-02-24 19:09:00,
2013-02-24 14:24:00,45.9,24.0,30.09,NE,54,5.0,9.0,43,0.00,,,0.00,weatherlink.com 1.10,2013-02-24 19:24:00,
2013-02-24 14:39:00,46.9,24.0,30.09,West,262,2.0,9.0,41,0.00,,,0.00,weatherlink.com 1.10,2013-02-24 19:39:00,
2013-02-24 14:54:00,47.2,23.0,30.09,NE,37,0.0,7.0,38,0.00,,,0.00,weatherlink.com 1.10,2013-02-24 19:54:00,
2013-02-24 15:09:00,46.7,23.0,30.09,West,277,2.0,10.0,40,0.00,,,0.00,weatherlink.com 1.10,2013-02-24 20:09:00,
2013-02-24 15:24:00,47.3,23.0,30.09,WSW,253,4.0,10.0,39,0.00,,,0.00,weatherlink.com 1.10,2013-02-24 20:24:00,
2013-02-24 15:39:00,46.9,24.0,30.09,SW,215,4.0,11.0,40,0.00,,,0.00,weatherlink.com 1.10,2013-02-24 20:39:00,
2013-02-24 15:54:00,46.9,23.0,30.09,NE,45,5.0,9.0,39,0.00,,,0.00,weatherlink.com 1.10,2013-02-24 20:54:00,
2013-02-24 16:09:00,48.3,24.0,30.10,WNW,283,1.0,9.0,39,0.00,,,0.00,weatherlink.com 1.10,2013-02-24 21:09:00,
2013-02-24 16:24:00,47.7,23.0,30.10,NW,323,4.0,6.0,38,0.00,,,0.00,weatherlink.com 1.10,2013-02-24 21:24:00,
2013-02-24 16:39:00,47.3,23.0,30.10,West,276,0.0,8.0,39,0.00,,,0.00,weatherlink.com 1.10,2013-02-24 21:39:00,
2013-02-24 16:54:00,47.5,23.0,30.10,NE,47,7.0,7.0,38,0.00,,,0.00,weatherlink.com 1.10,2013-02-24 21:54:00,
2013-02-24 17:09:00,47.1,23.0,30.10,SW,217,0.0,5.0,39,0.00,,,0.00,weatherlink.com 1.10,2013-02-24 22:09:00,
2013-02-24 17:24:00,46.0,23.0,30.10,North,11,1.0,4.0,40,0.00,,,0.00,weatherlink.com 1.10,2013-02-24 22:24:00,
2013-02-24 17:39:00,44.9,22.0,30.11,WNW,292,0.0,3.0,41,0.00,,,0.00,weatherlink.com 1.10,2013-02-24 22:39:00,
2013-02-24 17:54:00,44.1,22.0,30.11,WNW,297,0.0,3.0,42,0.00,,,0.00,weatherlink.com 1.10,2013-02-24 22:54:00,
2013-02-24 18:09:00,42.9,22.0,30.11,North,349,0.0,1.0,44,0.00,,,0.00,weatherlink.com 1.10,2013-02-24 23:09:00,
2013-02-24 18:24:00,42.1,23.0,30.12,North,9,0.0,1.0,46,0.00,,,0.00,weatherlink.com 1.10,2013-02-24 23:24:00,
2013-02-24 18:40:00,41.1,22.0,30.13,NNE,16,0.0,1.0,47,0.00,,,0.00,weatherlink.com 1.10,2013-02-24 23:40:00,
2013-02-24 18:55:00,40.5,22.0,30.13,NNE,19,0.0,1.0,47,0.00,,,0.00,weatherlink.com 1.10,2013-02-24 23:55:00,
2013-02-24 19:10:00,40.0,22.0,30.14,North,11,0.0,1.0,48,0.00,,,0.00,weatherlink.com 1.10,2013-02-25 00:10:00,
2013-02-24 19:25:00,38.9,22.0,30.14,NNE,22,0.0,1.0,50,0.00,,,0.00,weatherlink.com 1.10,2013-02-25 00:25:00,
2013-02-24 19:40:00,37.8,21.0,30.15,North,354,0.0,1.0,52,0.00,,,0.00,weatherlink.com 1.10,2013-02-25 00:40:00,
2013-02-24 19:55:00,37.1,21.0,30.16,NNE,23,0.0,2.0,52,0.00,,,0.00,weatherlink.com 1.10,2013-02-25 00:55:00,
2013-02-24 20:10:00,36.7,21.0,30.16,NNW,330,1.0,3.0,53,0.00,,,0.00,weatherlink.com 1.10,2013-02-25 01:10:00,
2013-02-24 20:25:00,37.7,21.0,30.16,NNW,335,0.0,2.0,52,0.00,,,0.00,weatherlink.com 1.10,2013-02-25 01:25:00,
2013-02-24 20:40:00,36.1,21.0,30.16,NNW,330,0.0,3.0,54,0.00,,,0.00,weatherlink.com 1.10,2013-02-25 01:40:00,
2013-02-24 20:55:00,34.7,22.0,30.16,NNW,338,0.0,2.0,59,0.00,,,0.00,weatherlink.com 1.10,2013-02-25 01:55:00,
2013-02-24 21:10:00,34.4,22.0,30.17,NE,36,0.0,1.0,61,0.00,,,0.00,weatherlink.com 1.10,2013-02-25 02:10:00,
2013-02-24 21:25:00,33.5,22.0,30.17,SE,127,0.0,2.0,62,0.00,,,0.00,weatherlink.com 1.10,2013-02-25 02:25:00,
2013-02-24 21:40:00,32.8,22.0,30.17,ESE,120,0.0,1.0,65,0.00,,,0.00,weatherlink.com 1.10,2013-02-25 02:40:00,
2013-02-24 21:55:00,32.1,22.0,30.17,SE,132,0.0,1.0,66,0.00,,,0.00,weatherlink.com 1.10,2013-02-25 02:55:00,
2013-02-24 22:10:00,32.2,22.0,30.17,SSE,156,0.0,1.0,66,0.00,,,0.00,weatherlink.com 1.10,2013-02-25 03:10:00,
2013-02-24 22:25:00,31.2,21.0,30.17,ENE,66,0.0,2.0,67,0.00,,,0.00,weatherlink.com 1.10,2013-02-25 03:25:00,
2013-02-24 22:40:00,34.0,22.0,30.17,ENE,78,0.0,1.0,61,0.00,,,0.00,weatherlink.com 1.10,2013-02-25 03:40:00,
2013-02-24 22:55:00,34.0,22.0,30.17,North,7,0.0,6.0,62,0.00,,,0.00,weatherlink.com 1.10,2013-02-25 03:55:00,
2013-02-24 23:10:00,34.5,22.0,30.16,NNE,32,0.0,6.0,60,0.00,,,0.00,weatherlink.com 1.10,2013-02-25 04:10:00,
2013-02-24 23:25:00,33.8,21.0,30.16,North,350,0.0,3.0,61,0.00,,,0.00,weatherlink.com 1.10,2013-02-25 04:25:00,
2013-02-24 23:40:00,33.1,23.0,30.16,North,11,0.0,2.0,66,0.00,,,0.00,weatherlink.com 1.10,2013-02-25 04:40:00,
2013-02-24 23:55:00,32.1,22.0,30.16,NE,36,0.0,0.0,66,0.00,,,0.00,weatherlink.com 1.10,2013-02-25 04:55:00,